Theta_e
314 316 316 312 314 311 315 322 328 314 318 311 312 313 311 309 305 305 308 314 320 321 324 326 328 329 329 330 332 334 334 334 333 332 331 331 330 330 329 328 328 328 328 327
317 318 315 311 310 312 309 314 317 316 309 309 310 309 309 306 306 305 306 307 311 314 311 312 323 326 328 329 330 332 333 334 334 333 332 331 331 331 330 328 328 328 328 329
322 316 314 314 314 312 310 310 309 313 309 308 308 310 310 308 305 305 303 304 304 307 311 304 307 315 323 326 329 330 331 333 334 334 333 332 331 331 331 329 327 328 329 329
312 313 317 312 314 311 313 309 310 309 309 310 307 311 310 309 306 305 306 302 303 302 301 301 304 305 309 321 326 327 329 331 332 333 333 333 332 331 332 331 327 325 326 328
312 310 313 314 314 312 313 311 310 310 311 307 306 306 307 304 305 306 305 303 303 302 303 302 302 305 306 309 317 322 326 328 330 332 332 333 332 332 332 331 328 325 324 324
308 305 308 309 309 310 309 309 308 306 308 313 309 307 307 306 308 306 304 304 304 304 300 300 303 304 305 309 316 320 323 327 329 331 332 332 332 331 331 331 328 325 324 325
307 307 306 306 308 306 310 313 313 312 311 315 305 305 310 307 303 304 305 304 303 301 300 301 304 306 307 310 313 316 320 325 328 330 331 331 331 331 332 331 327 325 326 327
311 312 306 305 307 307 309 311 312 312 310 312 302 307 311 304 304 301 301 300 300 299 300 303 304 306 308 310 311 311 313 317 322 327 329 330 329 330 331 331 330 326 327 326
308 309 305 304 305 308 306 308 307 306 296 304 304 303 303 303 303 302 303 303 302 301 302 304 304 306 307 310 312 311 309 309 310 311 317 327 328 328 330 331 330 327 326 324
306 309 306 306 305 306 306 306 309 306 305 304 305 304 308 305 306 304 303 304 303 302 303 303 303 304 307 310 312 312 311 310 309 309 308 309 319 324 327 328 327 325 323 323
304 307 308 306 306 306 305 306 306 307 307 309 309 307 301 305 305 305 304 304 304 304 303 303 302 304 306 309 311 312 312 312 313 313 313 313 319 322 324 326 323 320 317 317
305 306 307 307 306 305 306 307 308 309 308 304 306 308 302 301 302 302 302 304 304 304 303 301 302 302 303 306 309 310 310 312 313 314 315 317 319 321 321 319 315 314 314 312
306 308 303 308 308 306 306 305 307 308 305 309 308 310 301 303 303 303 303 304 304 304 302 301 299 300 302 303 305 306 307 309 310 310 312 313 314 315 314 312 311 310 311 308
309 309 308 310 308 307 309 306 304 307 310 309 307 308 306 305 304 304 303 305 304 303 302 301 300 299 300 301 302 304 305 306 307 308 309 310 310 310 309 308 306 306 303 300
309 310 307 307 306 308 309 309 306 306 308 308 309 307 304 305 304 303 303 304 304 304 303 302 300 297 298 299 301 302 303 303 304 305 305 305 305 304 303 301 299 297 296 294
305 304 306 306 309 307 309 309 308 309 308 306 307 306 304 303 305 305 303 304 305 305 304 302 300 298 297 298 299 299 300 300 301 301 301 301 300 299 298 296 295 294 293 293
307 303 302 302 308 309 310 309 308 308 308 308 307 308 302 303 303 304 304 304 305 305 305 303 301 299 298 298 299 298 299 299 298 298 297 297 296 295 294 293 293 293 292 292
308 309 307 305 307 312 309 305 306 307 307 306 307 305 303 303 303 303 304 304 304 304 304 303 301 300 299 298 298 298 298 297 296 296 295 295 294 293 292 292 292 292 292 291
305 308 307 311 305 308 308 305 305 305 307 304 304 303 302 302 304 302 301 303 304 304 304 304 303 301 299 298 298 297 296 295 295 294 294 293 293 292 292 291 291 291 291 290
302 307 310 297 314 313 306 305 303 306 310 307 303 303 303 301 304 306 303 301 303 303 304 303 302 300 298 297 298 296 294 294 293 293 293 293 292 292 291 291 291 290 289 289
301 298 309 298 309 303 303 302 304 310 307 300 303 305 303 304 306 302 302 301 302 302 303 302 301 298 296 296 296 294 293 292 294 294 293 292 291 292 291 291 290 289 289 288
305 303 301 295 297 309 298 301 309 306 300 301 303 302 301 300 302 302 300 301 300 300 299 299 296 296 296 296 295 293 292 293 294 293 292 291 291 291 290 289 289 288 288 287
308 306 304 307 307 301 298 302 300 299 300 302 304 303 303 300 300 301 299 297 296 297 296 296 296 294 294 294 294 292 292 293 292 292 291 291 290 290 289 288 288 287 287 286
300 296 303 304 299 301 299 300 299 299 300 300 300 300 300 302 300 299 296 294 293 291 292 294 293 291 290 292 293 293 293 293 292 291 290 289 289 288 287 288 288 287 286 285
302 301 299 298 300 300 299 298 299 297 296 297 296 297 297 298 298 297 292 289 291 290 291 292 292 290 290 291 292 292 293 292 290 289 289 288 288 288 287 286 286 285 285 285
298 301 305 304 300 302 301 297 297 296 297 296 297 297 295 295 296 291 288 289 289 289 290 291 291 291 290 290 291 291 291 290 289 287 286 286 286 285 285 284 283 283 282 282
Wind_Speed
0 3 15 9 8 3 5 4 15 4 7 5 11 14 10 7 5 8 8 9 12 12 18 19 27 30 30 33 35 36 34 35 34 33 29 27 27 24 20 19 18 18 17 16
3 17 8 7 4 5 4 4 4 4 3 4 4 10 9 6 6 8 11 9 12 8 8 12 25 28 34 35 37 37 37 37 37 36 34 30 30 28 25 21 21 20 19 19
12 3 8 7 3 5 5 4 2 4 1 3 2 9 10 7 6 6 8 9 6 11 14 8 18 28 30 36 39 39 39 39 39 38 34 31 26 27 24 22 20 23 23 22
5 5 20 8 16 9 8 6 3 2 2 4 2 5 12 11 11 10 13 9 12 11 9 8 17 24 32 39 39 39 38 39 40 39 38 35 30 25 30 26 21 19 21 20
7 10 11 17 11 11 4 7 6 4 3 4 4 4 5 6 10 12 10 11 12 13 14 13 17 27 28 34 35 37 38 38 38 39 39 39 31 32 29 23 21 18 16 17
6 3 10 8 8 12 9 6 6 5 3 3 9 6 5 8 13 4 8 11 13 15 11 10 13 18 19 23 25 27 32 35 35 36 36 36 35 33 27 23 21 20 17 15
3 3 2 5 6 4 12 14 2 2 2 12 3 5 17 7 7 7 10 12 10 7 7 8 9 16 20 22 22 23 26 30 30 31 33 34 33 32 30 27 23 23 18 16
10 8 11 5 6 5 12 15 7 7 4 7 4 8 10 11 10 7 8 7 7 8 8 12 12 18 20 20 20 21 23 24 26 29 31 29 30 31 29 28 22 23 20 16
6 7 3 4 4 12 5 11 5 5 1 3 5 9 8 9 10 7 10 7 10 8 7 8 9 19 21 20 20 20 20 21 23 24 25 28 27 28 28 27 23 22 19 16
5 3 1 2 4 1 9 10 4 1 2 5 5 5 9 3 11 11 9 12 10 7 7 7 8 14 15 16 16 16 16 17 19 21 24 25 26 26 25 25 24 23 22 19
6 4 0 6 8 9 3 5 4 4 6 6 8 8 8 11 11 12 13 10 6 8 9 6 5 13 14 14 14 14 15 15 15 16 18 21 24 26 26 27 26 25 23 19
6 6 4 8 2 2 2 7 15 6 13 5 2 11 3 8 8 7 10 6 6 7 6 6 9 11 12 14 15 15 15 15 14 15 17 21 25 28 29 29 28 24 22 19
9 3 3 5 3 3 7 7 12 15 3 12 7 18 4 5 6 6 7 6 6 7 9 7 6 11 15 16 16 16 16 16 16 18 21 24 27 29 30 29 26 24 24 22
14 4 9 13 9 7 3 3 3 10 11 16 7 20 6 5 8 6 6 5 6 6 8 8 8 10 14 16 16 17 18 19 21 21 23 26 28 28 29 28 27 26 25 25
11 18 6 1 6 8 9 9 8 7 15 8 25 15 8 11 8 6 5 5 7 8 8 9 8 6 15 19 19 19 20 22 23 24 25 27 28 28 28 28 28 27 26 24
1 3 5 1 3 5 5 13 13 16 20 14 22 20 5 2 3 5 8 8 9 11 13 13 11 12 18 22 25 25 24 24 25 27 28 28 29 30 30 29 28 27 25 23
8 6 4 7 3 3 4 14 15 12 18 16 16 21 5 6 9 10 9 12 14 15 14 13 13 16 21 26 30 30 30 27 27 28 30 31 31 30 30 29 28 25 23 21
9 10 3 3 2 4 9 7 16 18 17 17 19 3 7 11 10 8 7 9 13 13 12 14 16 22 24 27 28 29 30 31 31 31 31 31 31 31 29 27 26 24 21 19
1 6 3 5 4 8 20 6 6 6 15 14 17 7 10 3 2 8 10 12 14 12 14 19 24 25 28 32 33 32 32 33 32 32 32 32 31 31 29 27 24 22 21 19
4 9 8 3 9 16 4 13 8 4 23 9 13 14 15 8 4 14 9 8 15 12 15 18 24 25 28 32 37 36 34 34 32 33 33 32 31 30 29 26 24 22 20 18
4 3 14 3 8 9 7 6 9 10 4 3 5 13 14 12 14 2 3 5 5 10 16 23 30 31 30 36 39 32 31 32 36 34 32 30 29 27 26 25 23 22 20 18
7 7 5 2 1 18 6 5 21 7 2 2 1 3 7 8 4 4 4 3 5 2 9 21 21 23 29 36 38 31 31 33 35 34 33 31 29 28 27 25 22 20 20 18
3 7 7 13 9 2 6 1 3 3 3 3 2 1 2 5 5 2 4 4 3 1 5 14 19 21 25 32 34 29 30 38 36 35 34 32 30 28 26 24 23 21 20 19
4 1 3 4 4 4 5 1 2 3 2 2 2 1 1 0 2 1 2 3 2 3 3 10 15 14 17 28 31 29 36 38 37 37 36 33 32 29 26 23 23 24 23 21
3 8 5 3 2 2 2 6 3 3 4 5 3 3 4 3 2 1 1 1 1 2 5 12 15 16 18 24 26 29 35 38 37 37 37 35 33 31 30 27 26 24 21 21
4 5 5 5 7 4 4 8 6 6 4 4 5 4 4 4 3 2 1 1 4 5 7 10 12 14 17 23 26 28 32 37 38 35 37 36 34 32 30 27 23 22 20 20
Wind_Direction
48 180 199 175 187 87 158 180 233 250 213 201 237 233 238 251 240 256 232 216 225 226 233 228 224 220 220 224 224 224 222 221 219 218 218 221 223 226 233 237 242 244 243 241
67 224 181 163 125 195 160 182 246 296 301 189 279 252 241 213 231 218 226 234 224 225 232 220 225 220 217 223 224 224 223 225 224 223 222 218 220 226 234 237 245 241 242 243
203 164 189 198 180 197 216 181 155 241 293 249 342 259 245 249 228 230 231 222 220 226 232 222 226 226 222 222 225 224 226 227 227 225 220 219 223 226 229 231 247 247 248 246
210 200 187 174 219 178 214 148 129 45 311 245 202 278 227 226 232 220 228 215 226 224 229 226 226 227 227 227 227 226 227 228 229 224 219 214 213 216 232 238 235 251 251 251
207 173 179 207 199 177 170 147 166 159 101 359 230 267 242 167 238 235 227 223 229 228 222 224 219 233 232 227 224 226 226 227 228 226 222 220 216 228 236 236 225 240 247 251
191 176 167 189 172 184 142 59 32 41 109 246 216 196 230 213 229 231 228 230 224 231 222 224 225 227 225 218 217 219 220 223 224 224 222 222 221 224 223 227 216 235 226 229
92 214 239 153 142 127 163 153 174 213 219 236 148 167 243 261 238 229 218 235 237 233 196 196 200 196 201 202 205 208 209 216 217 219 220 222 223 225 225 229 225 229 210 216
170 207 180 187 187 167 191 183 160 197 223 251 82 227 247 218 249 222 256 259 275 241 211 201 193 194 195 195 198 201 200 205 211 217 220 220 223 225 226 229 227 217 204 205
145 241 35 161 150 156 195 208 187 108 32 50 206 272 300 249 265 255 252 256 247 238 206 198 178 185 186 189 194 200 202 203 209 214 216 217 218 220 223 224 220 205 190 177
189 130 187 118 101 170 172 158 174 145 206 258 273 265 219 240 226 239 241 235 232 199 198 185 180 186 181 188 194 197 199 210 212 217 219 214 210 212 210 207 195 181 168 164
154 115 31 122 202 174 149 173 196 166 164 217 254 258 213 215 223 236 238 254 263 197 173 180 177 186 181 181 189 191 188 194 197 198 203 202 195 198 193 184 173 168 164 165
185 124 157 207 290 92 231 190 198 198 218 230 186 259 215 245 263 276 273 228 172 157 166 171 175 182 178 180 183 184 177 177 181 180 180 178 180 178 174 168 166 166 164 159
167 183 78 10 2 238 196 209 204 211 82 213 202 256 200 239 244 255 272 245 212 168 156 162 165 193 191 188 182 177 173 172 173 173 168 164 165 167 164 162 163 163 159 156
151 123 171 215 233 128 199 206 245 198 220 231 228 252 296 283 264 306 271 228 182 185 174 182 191 191 190 190 183 178 176 176 176 175 169 166 166 165 163 161 160 158 156 152
166 207 164 277 227 188 186 188 189 201 227 197 246 248 216 247 266 249 241 189 180 189 197 200 199 183 187 189 188 186 182 178 176 176 173 169 166 164 160 157 155 151 151 149
322 227 115 191 327 163 188 203 201 212 230 237 251 258 148 150 180 225 220 187 212 206 206 201 194 188 192 192 190 187 185 180 178 176 172 167 164 162 158 155 154 152 152 151
156 132 108 239 135 154 269 210 201 214 218 223 236 243 156 225 244 241 203 195 212 216 211 201 196 194 195 195 194 189 187 179 180 176 170 165 163 162 160 159 156 156 155 153
167 185 116 158 86 202 257 198 212 216 230 223 248 160 210 227 228 244 217 206 221 216 197 197 198 197 196 195 194 191 187 184 182 179 173 169 168 165 163 161 160 159 160 160
140 143 133 163 192 296 274 206 147 181 261 221 237 222 240 237 2 274 217 214 223 211 212 208 199 192 186 190 193 190 186 187 184 182 178 175 174 170 167 166 166 166 166 170
53 192 180 125 218 232 326 197 150 94 267 190 203 209 218 143 221 251 236 207 228 216 200 185 182 179 180 185 192 186 183 186 185 187 183 180 179 176 174 172 172 173 176 175
115 84 199 169 223 267 230 133 124 186 245 251 225 213 201 196 224 281 346 265 242 213 192 185 178 180 184 186 187 179 181 186 190 188 184 182 183 181 180 179 180 177 175 175
151 150 189 92 169 256 152 59 178 223 123 195 51 154 197 236 324 328 344 324 299 232 166 177 169 174 184 191 183 177 183 187 189 185 182 181 182 184 185 184 179 179 181 180
188 185 172 189 212 244 203 21 108 134 155 190 155 212 212 216 245 306 320 343 12 137 166 180 171 169 183 189 186 178 181 188 184 181 181 181 183 186 187 185 182 183 188 189
257 172 179 106 225 199 200 235 196 182 147 107 80 109 120 278 284 325 11 352 14 53 139 171 166 164 173 188 189 188 186 186 182 181 182 183 184 183 187 191 196 196 195 196
186 143 163 289 359 70 238 213 147 106 99 108 72 80 76 68 32 31 90 103 93 144 158 181 180 176 183 188 186 191 190 185 180 182 185 186 188 189 191 196 200 204 208 211
188 164 179 224 189 158 205 168 155 144 141 116 109 77 57 54 65 55 69 119 157 169 174 177 184 187 185 187 188 190 192 189 181 178 184 189 192 195 195 194 196 203 210 215